Home > Weather > Schweinfurt > Past weeks

Flag for Germany Past Weather in Schweinfurt, Bavaria, Germany — Yesterday and Last 2 Weeks

Now
74 °F

Partly sunny.


Feels Like: 77 °F
Forecast: 56 / 71 °F
Wind: 13 mph from West

Location: Illesheim

Current Time: Jun 29, 2016 at 4:46:13 PM

Latest Report: Jun 29, 2016 at 3:58 PM


Visibility: N/A

Pressure: 29.95 "Hg

Humidity: 53%

Dew Point: 56 °F

Location of SchweinfurtLocation

Past Weather in Schweinfurt — Graph

°F

Schweinfurt Temperature Yesterday

Maximum temperature yesterday: 72 °F (at 1:58 PM)
Minimum temperature yesterday: 58 °F (at 1:58 AM)
Average temperature yesterday: 65 °F

High & Low Weather Summary for the Past Weeks

 TemperatureHumidityPressure
High90 °F (Jun 23, 4:58 PM)100% (Jun 15, 1:58 AM)30.27 "Hg (Jun 15, 1:58 AM)
Low46 °F (Jun 20, 5:58 AM)37% (Jun 23, 5:58 PM)29.54 "Hg (Jun 14, 3:58 PM)
Average64 °F77%30.00 "Hg
* Reported Jun 14 2:58 PM — Jun 29 2:58 PM, Schweinfurt, Weather by CustomWeather, © 2016

Note: Actual official high and low records may vary slightly from our data, if they occured in-between our weather recording intervals... More about our weather records

Advertising

Schweinfurt Weather History for the Previous 24 Hours

Scroll right to see more
 ConditionsComfort  
Time TempWeatherWind HumidityBarometerVisibility
2:58 PM
Wed, Jun 29
74 °FPassing clouds.15 mph53%29.96 "HgN/A
1:58 PM72 °FScattered clouds.17 mph58%29.97 "HgN/A
12:58 PM72 °FPartly sunny.15 mph61%29.98 "HgN/A
11:58 AM72 °FScattered clouds.21 mph59%29.97 "HgN/A
10:58 AM71 °FScattered clouds.18 mph66%29.97 "HgN/A
9:58 AM70 °FBroken clouds.16 mph73%29.96 "HgN/A
8:58 AM67 °FScattered clouds.12 mph81%29.96 "HgN/A
7:58 AM66 °FPartly sunny.14 mph83%29.96 "HgN/A
6:58 AM63 °FBroken clouds.10 mph85%29.96 "HgN/A
5:58 AM61 °FOvercast.6 mph92%29.95 "HgN/A
4:59 AM61 °FMostly cloudy.5 mph94%29.97 "HgN/A
3:58 AM61 °FOvercast.1 mph94%29.95 "HgN/A
2:58 AM62 °FPartly cloudy.2 mph93%29.95 "HgN/A
1:58 AM62 °FOvercast.3 mph93%29.96 "HgN/A
12:58 AM61 °FMostly cloudy.5 mph94%29.96 "HgN/A
11:58 PM
Tue, Jun 28
64 °FMostly cloudy.1 mph87%29.96 "HgN/A
10:58 PM64 °FMostly cloudy.3 mph88%29.98 "HgN/A
9:58 PM65 °FOvercast.No wind85%29.98 "HgN/A
8:58 PM67 °FBroken clouds.2 mph76%30.00 "HgN/A
7:58 PM68 °FMild.N/A70%30.00 "HgN/A
6:58 PM68 °FScattered clouds.5 mph73%30.01 "HgN/A
5:58 PM69 °FPassing clouds.6 mph74%30.03 "HgN/A
4:58 PM68 °FScattered clouds.7 mph73%30.03 "HgN/A
Weather by CustomWeather, © 2016

See weather overviewHow to use our weather pages